カタログに戻る

ATLAS 5 CENTAUR DEB

運用中HEO
NORAD 49349·DEBRIS·🇺🇸 United States

打ち上げ Oct 17, 2018 から Cape Canaveral Space Force Station

Loading…

次のパス (今後24時間)

TLE

最新Source: Space-Track

元期: Sep 5, 2026, 12:35 UTC

1 49349U 18079FA  26248.52469315 -.00000188  00000-0  00000+0 0  9998
2 49349  13.3710  27.8850 4655797 330.9519   9.5593  1.82932210 33543

AllMySatでATLAS 5 CENTAUR DEBをリアルタイム追跡

Download on the App Store